[Iaude] MPEC Q19: 2020 PZ3 [a=1.19,e=0.11,i=8.9,H=25.0]

mpec at marsden.cfa.harvard.edu mpec at marsden.cfa.harvard.edu
Sun Aug 16 12:43:00 EDT 2020


M.P.E.C. 2020-Q19                               Issued 2020 August 16, 16:41 UT

     The Minor Planet Electronic Circulars contain information on unusual
         minor planets and routine data on comets.  They are published
    on behalf of Division F of the International Astronomical Union by the
          Minor Planet Center, Smithsonian Astrophysical Observatory,
                          Cambridge, MA 02138, U.S.A.

             Prepared using the Tamkin Foundation Computer Network

                              MPC at CFA.HARVARD.EDU
            URL https://www.minorplanetcenter.net/    ISSN 1523-6714

                                    2020 PZ3                                    


Observations:
     K20P03Z* C2020 08 13.36372121 18 51.539-30 01 32.71         22.19wUEQ019F51
     K20P03Z  C2020 08 13.38435121 18 50.448-30 03 00.35         21.74wUEQ019F51
     K20P03Z  C2020 08 13.39465521 18 49.879-30 03 43.80         22.15wUEQ019F51
     K20P03Z ^C2020 08 14.43371421 18 20.760-31 15 56.37         21.69GVEQ019568
     K20P03Z ^C2020 08 14.43561121 18 20.657-31 16 04.26         21.64GVEQ019568
     K20P03Z ^C2020 08 14.43656121 18 20.602-31 16 08.20         21.56GVEQ019568
     K20P03Z KC2020 08 16.54205921 17 23.35 -33 40 52.8          21.4 GVEQ019474
     K20P03Z KC2020 08 16.54677621 17 23.17 -33 41 12.7          21.7 GVEQ019474
     K20P03Z KC2020 08 16.55149321 17 22.91 -33 41 32.2          21.3 GVEQ019474

Observer details:
474 Mount John Observatory, Lake Tekapo.  Observers A. C. Gilmore, P. M.
    Kilmartin.  Measurer P. M. Kilmartin.  1.0-m f/7.7 reflector + CCD.
568 Mauna Kea.  Observers R. Wainscoat, C. Wipper, T. Burdullis.  Measurers R.
    Weryk, R. Wainscoat.  3.6-m Canada-France-Hawaii Telescope + CCD.
F51 Pan-STARRS 1, Haleakala.  Observers J. Bulger, T. Lowe, A. Schultz, M.
    Willman.  Measurers K. Chambers, S. Chastel, T. de Boer, L. Denneau, J.
    Fairlamb, H. Flewelling, M. Huber, C.-C. Lin, E. Magnier, Y. Ramanjooloo,
    R. Wainscoat, R. Weryk.  1.8-m Ritchey-Chretien + CCD.

Orbital elements:
2020 PZ3                                                 Earth MOID = 0.1303 AU
Epoch 2020 Aug. 14.0 TT = JDT 2459075.5                 Bell                    
M 293.74365              (2000.0)            P               Q                  
n   0.75933317     Peri.  270.23518     +0.76367635     -0.63433080             
a   1.1899110      Node   129.13804     +0.63662827     +0.70901723             
e   0.1145466      Incl.    8.90730     +0.10725143     +0.30808929             
P   1.30           H   25.07          G   0.15           U   9                  
Residuals in seconds of arc
200813 F51  0.0-  0.3+    200814 568  0.0-  0.0+    200816 474  0.4-  0.4+
200813 F51  0.1+  0.1-    200814 568  0.0+  0.0-    200816 474  0.3+  0.1-
200813 F51  0.1-  0.2-    200814 568  0.0+  0.0-    200816 474  0.1-  0.3-

Ephemeris:
2020 PZ3                 a,e,i = 1.19, 0.11, 9                   q = 1.0536
Date    TT    R. A. (2000) Decl.     Delta      r    Elong.  Phase     V
2020 07 17    21 22 08.7 -05 28 20   0.2033  1.1996   151.9    23.5    23.1
...
2020 08 01    21 23 00.2 -16 34 57   0.1592  1.1724   170.9     7.8    22.0
...
2020 08 09    21 20 39.4 -25 00 32   0.1458  1.1579   170.8     8.1    21.8
...
2020 08 15    21 18 05.8 -31 54 23   0.1407  1.1472   161.5    16.2    22.0
2020 08 16    21 17 38.7 -33 03 38   0.1403  1.1454   159.9    17.7    22.0
2020 08 17    21 17 11.8 -34 12 31   0.1400  1.1436   158.2    19.2    22.1
...
2020 08 23    21 14 48.9 -40 49 37   0.1404  1.1331   148.3    27.9    22.3
...
2020 08 31    21 13 47.9 -48 25 02   0.1458  1.1196   136.5    38.4    22.7
...
2020 09 15    21 24 30.5 -57 50 43   0.1642  1.0965   119.8    52.8    23.3

M. P. C. Staff               (C) Copyright 2020 MPC           M.P.E.C. 2020-Q19




More information about the Iaude mailing list